Total_Precipitation_Accumulation
0.03 0.06 0.06 0.08 0.09 0.11 0.14 0.18 0.20 0.21 0.20 0.25 0.28 0.39 0.55 0.72 0.70 0.74 0.83 0.91 0.90 1.03 1.17 1.45 1.96 2.64 3.11 3.26 3.25 3.32 3.28 3.33 3.38 3.32 3.36 3.57 3.73 3.76 3.70 3.78 3.83 3.69 3.58 3.63
0.04 0.06 0.07 0.08 0.10 0.11 0.18 0.20 0.22 0.25 0.22 0.23 0.33 0.46 0.61 0.71 0.70 0.76 0.89 0.90 0.86 0.89 1.07 1.46 1.85 2.27 2.69 3.02 3.14 3.25 3.19 3.39 3.64 3.99 4.42 4.71 4.88 4.81 4.66 4.59 4.49 4.32 4.17 4.10
0.05 0.04 0.03 0.04 0.08 0.11 0.17 0.15 0.21 0.29 0.31 0.27 0.38 0.66 0.75 0.79 0.89 1.00 1.05 1.08 1.07 0.96 1.08 1.41 1.64 1.97 2.32 2.66 2.89 3.04 3.28 3.73 4.17 4.71 5.45 5.84 5.68 5.33 5.16 4.88 4.78 4.57 4.29 4.17
0.02 0.02 0.02 0.05 0.06 0.09 0.13 0.12 0.17 0.24 0.29 0.32 0.33 0.70 0.95 0.99 1.16 1.32 1.19 1.09 1.09 1.10 1.12 1.26 1.48 1.75 1.99 2.36 2.74 3.06 3.47 4.04 4.64 5.12 5.62 5.92 5.87 5.63 5.39 4.97 4.60 4.23 3.89 3.66
0.03 0.04 0.08 0.12 0.08 0.08 0.09 0.10 0.12 0.17 0.21 0.28 0.32 0.53 0.98 1.18 1.26 1.37 1.22 1.13 0.99 0.93 1.00 1.10 1.24 1.46 1.78 2.20 2.62 3.00 3.39 4.01 4.57 5.08 5.45 5.69 5.76 5.64 5.29 4.66 4.07 3.69 3.36 3.09
0.04 0.05 0.10 0.10 0.07 0.07 0.09 0.10 0.13 0.20 0.23 0.33 0.31 0.51 1.06 1.38 1.42 1.35 1.29 1.25 1.10 0.96 0.94 0.95 1.06 1.26 1.63 1.98 2.46 2.80 3.11 3.77 4.43 4.99 5.37 5.63 5.65 5.37 4.78 4.17 3.65 3.31 3.04 2.76
0.10 0.10 0.10 0.08 0.09 0.09 0.11 0.16 0.31 0.39 0.44 0.45 0.35 0.56 1.07 1.17 1.19 1.27 1.21 1.12 1.10 0.99 0.87 0.89 1.06 1.14 1.43 1.78 2.15 2.48 2.83 3.30 3.77 4.21 4.48 4.67 4.74 4.52 4.15 3.78 3.34 2.99 2.75 2.50
0.22 0.19 0.11 0.07 0.06 0.07 0.10 0.17 0.40 0.54 0.55 0.54 0.56 0.94 1.36 1.21 1.17 1.19 1.17 1.01 0.99 1.00 0.95 0.96 1.08 1.16 1.25 1.49 1.80 2.18 2.50 2.79 3.02 3.21 3.42 3.41 3.38 3.35 3.22 2.88 2.50 2.23 2.00 1.86
0.21 0.20 0.10 0.06 0.03 0.04 0.08 0.14 0.17 0.29 0.35 0.57 0.85 1.13 1.50 1.42 1.41 1.26 1.14 1.05 0.98 0.99 0.96 1.00 1.11 1.15 1.22 1.36 1.56 1.79 1.94 2.11 2.17 2.12 2.15 2.21 2.24 2.24 2.18 2.05 1.79 1.50 1.31 1.21
0.16 0.16 0.12 0.08 0.06 0.06 0.09 0.13 0.18 0.38 0.55 0.75 0.93 1.38 1.85 1.90 1.76 1.50 1.19 1.02 0.87 0.92 0.99 1.05 1.13 1.22 1.26 1.28 1.46 1.56 1.54 1.53 1.56 1.58 1.56 1.53 1.57 1.61 1.63 1.57 1.44 1.27 1.09 0.96
0.15 0.17 0.15 0.12 0.14 0.15 0.15 0.18 0.21 0.35 0.46 0.79 1.12 1.67 1.77 1.95 1.88 1.69 1.51 1.14 0.97 0.96 1.02 1.12 1.13 1.11 1.10 1.09 1.14 1.17 1.20 1.24 1.24 1.21 1.22 1.23 1.20 1.16 1.16 1.20 1.20 1.09 0.95 0.83
0.18 0.18 0.26 0.22 0.18 0.16 0.17 0.20 0.26 0.47 0.56 0.63 0.98 1.73 1.61 1.94 1.99 1.76 1.58 1.25 1.11 1.06 1.11 1.13 1.06 0.94 0.91 0.95 0.98 0.97 0.98 1.00 1.04 1.05 1.03 1.03 0.95 0.91 0.91 0.90 0.90 0.85 0.84 0.81
0.18 0.25 0.44 0.54 0.49 0.32 0.25 0.21 0.24 0.31 0.47 0.61 0.98 1.75 1.74 1.86 1.92 1.64 1.42 1.32 1.28 1.27 1.32 1.30 1.15 0.96 0.88 0.88 0.89 0.82 0.80 0.79 0.76 0.78 0.80 0.84 0.80 0.76 0.78 0.75 0.73 0.76 0.77 0.76
0.15 0.34 0.63 0.99 0.88 0.49 0.36 0.26 0.23 0.31 0.54 0.65 0.86 1.34 1.61 1.72 1.64 1.51 1.42 1.36 1.38 1.37 1.26 1.22 1.16 1.03 0.94 0.87 0.81 0.76 0.72 0.68 0.64 0.62 0.62 0.67 0.68 0.67 0.68 0.69 0.68 0.65 0.64 0.65
0.19 0.36 0.43 0.38 0.32 0.33 0.35 0.31 0.30 0.37 0.46 0.70 0.96 1.24 1.48 1.70 1.72 1.68 1.52 1.41 1.38 1.35 1.32 1.29 1.19 1.08 0.96 0.89 0.79 0.73 0.69 0.60 0.56 0.58 0.61 0.63 0.65 0.63 0.65 0.68 0.66 0.59 0.53 0.49
0.21 0.29 0.36 0.37 0.31 0.33 0.40 0.39 0.38 0.42 0.52 0.72 0.99 1.34 1.60 1.79 1.80 1.69 1.54 1.45 1.46 1.40 1.34 1.28 1.17 1.07 0.98 0.95 0.91 0.82 0.75 0.65 0.62 0.66 0.68 0.66 0.66 0.67 0.67 0.64 0.61 0.57 0.53 0.49
0.24 0.37 0.58 0.56 0.40 0.53 0.83 0.69 0.62 0.65 0.67 0.86 1.12 1.33 1.50 1.69 1.75 1.74 1.65 1.63 1.69 1.55 1.49 1.44 1.31 1.19 1.13 1.06 0.97 0.90 0.83 0.74 0.70 0.70 0.67 0.64 0.62 0.63 0.58 0.53 0.57 0.56 0.55 0.51
0.31 0.48 0.69 0.67 0.78 1.22 1.11 0.65 0.62 0.75 0.69 0.69 0.86 0.97 1.17 1.36 1.44 1.51 1.58 1.68 1.77 1.70 1.64 1.52 1.39 1.32 1.28 1.17 1.08 0.99 0.88 0.78 0.69 0.65 0.60 0.53 0.54 0.59 0.53 0.52 0.56 0.54 0.55 0.56
0.25 0.51 0.84 0.88 1.09 1.23 1.06 0.66 0.56 0.83 1.02 0.76 0.73 0.81 0.93 0.96 1.16 1.44 1.44 1.43 1.57 1.60 1.56 1.49 1.41 1.38 1.30 1.16 1.05 0.93 0.82 0.70 0.62 0.61 0.55 0.48 0.46 0.47 0.49 0.49 0.54 0.57 0.59 0.61
0.26 0.48 0.87 1.04 1.34 1.50 1.16 0.55 0.45 0.81 1.38 0.94 0.85 0.85 1.01 1.09 1.34 1.38 1.20 1.18 1.28 1.33 1.33 1.31 1.27 1.22 1.21 1.10 0.96 0.89 0.83 0.73 0.60 0.52 0.45 0.43 0.44 0.44 0.49 0.52 0.55 0.52 0.57 0.63
0.61 0.71 0.88 1.10 1.47 1.41 0.73 0.40 0.54 1.25 1.42 0.96 0.95 1.00 1.04 1.14 1.18 1.05 0.98 1.11 1.22 1.23 1.22 1.15 1.09 1.06 1.02 0.94 0.83 0.77 0.73 0.63 0.46 0.36 0.35 0.38 0.40 0.41 0.42 0.50 0.55 0.53 0.52 0.56
0.92 1.07 1.14 1.23 1.46 1.44 0.62 0.50 0.88 1.09 0.77 0.80 0.88 0.87 0.90 0.83 0.78 0.85 0.92 1.09 1.19 1.21 1.17 1.07 0.99 0.88 0.81 0.72 0.70 0.68 0.57 0.42 0.32 0.32 0.34 0.36 0.35 0.30 0.31 0.45 0.49 0.50 0.54 0.51
1.00 1.18 1.23 1.35 1.43 1.05 0.62 0.58 0.61 0.63 0.67 0.68 0.75 0.74 0.74 0.75 0.75 0.81 0.93 1.02 1.12 1.07 0.98 0.87 0.77 0.68 0.62 0.60 0.62 0.59 0.45 0.33 0.28 0.34 0.38 0.36 0.32 0.31 0.30 0.36 0.40 0.41 0.48 0.48
1.10 1.03 1.07 1.15 1.14 0.89 0.71 0.57 0.52 0.55 0.58 0.58 0.63 0.69 0.74 0.78 0.80 0.83 0.87 0.90 0.95 0.91 0.81 0.68 0.62 0.60 0.60 0.57 0.50 0.44 0.33 0.31 0.34 0.40 0.40 0.37 0.37 0.35 0.29 0.28 0.27 0.28 0.32 0.35
0.97 1.11 1.27 1.29 1.20 1.02 0.85 0.64 0.58 0.58 0.60 0.63 0.68 0.70 0.69 0.70 0.74 0.76 0.79 0.77 0.75 0.70 0.64 0.56 0.55 0.55 0.55 0.47 0.40 0.33 0.30 0.30 0.37 0.38 0.33 0.30 0.30 0.30 0.29 0.23 0.18 0.17 0.18 0.19
0.68 0.95 1.31 1.39 1.12 1.03 0.96 0.82 0.71 0.75 0.81 0.76 0.69 0.66 0.65 0.62 0.60 0.55 0.54 0.54 0.54 0.50 0.47 0.45 0.43 0.41 0.37 0.34 0.32 0.28 0.25 0.24 0.31 0.34 0.32 0.27 0.25 0.22 0.19 0.19 0.19 0.13 0.12 0.14